| time (UTC) | temp C | wind direction | speed KPH | gust KPH | rain 1hr cm | rain 24hr cm | rain mn cm | humidity % | barometer mb |
| 20260506071700 | 3 | 261 | 20.9 | 33.8 | 0.00 | 1.24 | 0.25 | 98 | 1014.2 |
| 20260506071203 | 3 | 255 | 19.3 | 33.8 | 0.00 | 1.24 | 0.25 | 98 | 1014.1 |
| 20260506070909 | 3 | 247 | 22.5 | 33.8 | 0.00 | 1.24 | 0.25 | 98 | 1014.0 |
| 20260506070706 | 3 | 247 | 22.5 | 33.8 | 0.00 | 1.24 | 0.25 | 98 | 1014.0 |
| 20260506070209 | 4 | 250 | 25.7 | 33.8 | 0.00 | 1.24 | 0.25 | 98 | 1014.0 |
| 20260506062233 | 4 | 258 | 19.3 | 35.4 | 0.00 | 1.24 | 0.25 | 98 | 1013.7 |
| 20260506061736 | 4 | 247 | 22.5 | 35.4 | 0.00 | 1.24 | 0.25 | 98 | 1013.6 |
| 20260506061239 | 4 | 261 | 25.7 | 33.8 | 0.00 | 1.24 | 0.25 | 97 | 1013.8 |
| 20260506060742 | 4 | 255 | 25.7 | 33.8 | 0.00 | 1.24 | 0.25 | 97 | 1013.8 |
| 20260506060245 | 4 | 257 | 24.1 | 33.8 | 0.00 | 1.24 | 0.25 | 97 | 1013.6 |
| 20260506051316 | 5 | 258 | 20.9 | 33.8 | 0.00 | 1.27 | 0.25 | 98 | 1013.5 |
| 20260506050321 | 5 | 259 | 17.7 | 30.6 | 0.00 | 1.27 | 0.25 | 98 | 1013.5 |
| 20260506044830 | 5 | 254 | 19.3 | 35.4 | 0.00 | 1.27 | 0.25 | 97 | 1013.4 |
| 20260506044333 | 5 | 256 | 22.5 | 35.4 | 0.00 | 1.27 | 0.25 | 97 | 1013.4 |
| 20260506043835 | 5 | 261 | 24.1 | 33.8 | 0.00 | 1.27 | 0.25 | 97 | 1013.3 |
| 20260506043339 | 5 | 258 | 27.4 | 33.8 | 0.00 | 1.27 | 0.25 | 97 | 1013.2 |
| 20260506042940 | 5 | 257 | 25.7 | 37.0 | 0.00 | 1.27 | 0.25 | 97 | 1013.1 |
| 20260506042842 | 5 | 257 | 25.7 | 37.0 | 0.00 | 1.27 | 0.25 | 97 | 1013.1 |
| 20260506042345 | 5 | 257 | 25.7 | 37.0 | 0.00 | 1.27 | 0.25 | 97 | 1013.0 |
| 20260506041848 | 5 | 256 | 24.1 | 35.4 | 0.00 | 1.27 | 0.25 | 97 | 1013.0 |
| 20260506041351 | 5 | 256 | 25.7 | 35.4 | 0.00 | 1.27 | 0.25 | 97 | 1012.9 |
| 20260506040854 | 5 | 262 | 22.5 | 37.0 | 0.00 | 1.27 | 0.25 | 97 | 1012.8 |
| 20260506035933 | 5 | 261 | 25.7 | 35.4 | 0.00 | 1.27 | 0.25 | 97 | 1012.6 |
| 20260506035900 | 5 | 261 | 25.7 | 35.4 | 0.00 | 1.27 | 0.25 | 97 | 1012.6 |
| 20260506035403 | 5 | 258 | 25.7 | 35.4 | 0.00 | 1.27 | 0.25 | 97 | 1012.6 |
| 20260506034956 | 5 | 255 | 24.1 | 35.4 | 0.00 | 1.27 | 0.25 | 97 | 1012.6 |
| 20260506034906 | 5 | 255 | 24.1 | 35.4 | 0.00 | 1.27 | 0.25 | 97 | 1012.6 |
| 20260506034409 | 5 | 256 | 25.7 | 35.4 | 0.00 | 1.27 | 0.25 | 97 | 1012.4 |
| 20260506033946 | 5 | 257 | 27.4 | 35.4 | 0.00 | 1.27 | 0.25 | 97 | 1012.3 |
| 20260506033912 | 5 | 257 | 27.4 | 35.4 | 0.00 | 1.27 | 0.25 | 97 | 1012.3 |
| 20260506033456 | 5 | 257 | 20.9 | 33.8 | 0.00 | 1.27 | 0.25 | 97 | 1012.4 |
| 20260506033416 | 5 | 257 | 20.9 | 33.8 | 0.00 | 1.27 | 0.25 | 97 | 1012.4 |
| 20260506032917 | 5 | 250 | 22.5 | 37.0 | 0.00 | 1.27 | 0.25 | 97 | 1012.3 |
| 20260506032421 | 5 | 259 | 22.5 | 37.0 | 0.00 | 1.27 | 0.25 | 96 | 1012.2 |
| 20260506031427 | 5 | 269 | 24.1 | 33.8 | 0.00 | 1.27 | 0.25 | 96 | 1012.1 |
| 20260506030930 | 5 | 270 | 20.9 | 33.8 | 0.00 | 1.27 | 0.25 | 96 | 1012.2 |
| 20260506025936 | 5 | 260 | 22.5 | 35.4 | 0.00 | 1.27 | 0.25 | 95 | 1012.1 |
| 20260506025439 | 5 | 256 | 20.9 | 35.4 | 0.00 | 1.27 | 0.25 | 95 | 1011.9 |
| 20260506024942 | 5 | 260 | 19.3 | 32.2 | 0.00 | 1.27 | 0.25 | 95 | 1011.9 |
| 20260506023948 | 5 | 267 | 17.7 | 33.8 | 0.00 | 1.27 | 0.25 | 94 | 1011.9 |
| 20260506023451 | 5 | 257 | 20.9 | 38.6 | 0.00 | 1.27 | 0.25 | 94 | 1011.8 |
| 20260506022955 | 5 | 258 | 25.7 | 38.6 | 0.00 | 1.27 | 0.25 | 93 | 1011.7 |
| 20260506022456 | 5 | 251 | 29.0 | 38.6 | 0.00 | 1.27 | 0.25 | 93 | 1011.6 |
| 20260506022000 | 5 | 252 | 25.7 | 38.6 | 0.00 | 1.27 | 0.25 | 93 | 1011.6 |
| 20260506021006 | 5 | 251 | 25.7 | 35.4 | 0.00 | 1.27 | 0.25 | 92 | 1011.5 |
| 20260506020509 | 6 | 266 | 20.9 | 27.4 | 0.00 | 1.27 | 0.25 | 91 | 1011.5 |
| 20260506020012 | 6 | 264 | 16.1 | 37.0 | 0.00 | 1.27 | 0.25 | 90 | 1011.4 |
| 20260506015514 | 6 | 266 | 20.9 | 37.0 | 0.00 | 1.27 | 0.25 | 90 | 1011.3 |
| 20260506015019 | 6 | 268 | 20.9 | 37.0 | 0.00 | 1.27 | 0.25 | 89 | 1011.1 |
| 20260506014521 | 6 | 270 | 22.5 | 33.8 | 0.00 | 1.27 | 0.25 | 88 | 1011.1 |
| 20260506014256 | 6 | 260 | 20.9 | 35.4 | 0.00 | 1.27 | 0.25 | 87 | 1010.9 |
| 20260506014024 | 6 | 260 | 20.9 | 35.4 | 0.00 | 1.27 | 0.25 | 87 | 1010.9 |
| 20260506013527 | 6 | 266 | 24.1 | 38.6 | 0.00 | 1.27 | 0.25 | 86 | 1011.0 |
| 20260506013219 | 7 | 271 | 24.1 | 38.6 | 0.00 | 1.27 | 0.25 | 85 | 1011.1 |
| 20260506013030 | 7 | 271 | 24.1 | 38.6 | 0.00 | 1.27 | 0.25 | 85 | 1011.1 |
| 20260506012719 | 7 | 277 | 20.9 | 30.6 | 0.00 | 1.27 | 0.25 | 84 | 1011.2 |
| 20260506012533 | 7 | 277 | 20.9 | 30.6 | 0.00 | 1.27 | 0.25 | 84 | 1011.2 |
| 20260506012146 | 7 | 256 | 19.3 | 38.6 | 0.00 | 1.27 | 0.25 | 84 | 1011.1 |
| 20260506012036 | 7 | 256 | 19.3 | 38.6 | 0.00 | 1.27 | 0.25 | 84 | 1011.1 |
| 20260506011539 | 7 | 251 | 22.5 | 38.6 | 0.00 | 1.27 | 0.25 | 83 | 1011.1 |
| 20260506011042 | 7 | 250 | 17.7 | 33.8 | 0.00 | 1.27 | 0.25 | 82 | 1011.0 |
| 20260506005054 | 8 | 267 | 16.1 | 37.0 | 0.00 | 1.27 | 0.25 | 81 | 1011.0 |
| 20260506004100 | 8 | 262 | 14.5 | 40.2 | 0.00 | 1.27 | 0.25 | 81 | 1011.0 |
| 20260506003603 | 8 | 275 | 19.3 | 40.2 | 0.00 | 1.27 | 0.25 | 81 | 1010.6 |
| 20260506003106 | 8 | 270 | 27.4 | 37.0 | 0.00 | 1.27 | 0.25 | 80 | 1010.6 |
| 20260506002740 | 8 | 267 | 17.7 | 40.2 | 0.00 | 1.27 | 0.25 | 81 | 1010.6 |
| 20260506002609 | 8 | 267 | 17.7 | 40.2 | 0.00 | 1.27 | 0.25 | 81 | 1010.6 |
| 20260506002112 | 8 | 288 | 20.9 | 40.2 | 0.00 | 1.27 | 0.25 | 81 | 1010.5 |
| 20260506001615 | 7 | 276 | 19.3 | 32.2 | 0.00 | 1.27 | 0.25 | 83 | 1010.4 |
| 20260506001118 | 7 | 261 | 20.9 | 38.6 | 0.00 | 1.27 | 0.25 | 83 | 1010.5 |
| 20260506000701 | 7 | 266 | 17.7 | 46.7 | 0.00 | 1.27 | 0.25 | 82 | 1010.4 |
| 20260506000622 | 7 | 266 | 17.7 | 46.7 | 0.00 | 1.27 | 0.25 | 82 | 1010.4 |
| 20260506000124 | 8 | 271 | 22.5 | 46.7 | 0.00 | 1.27 | 0.25 | 79 | 1010.3 |
| 20260505235627 | 8 | 255 | 30.6 | 45.1 | 0.00 | 1.27 | 0.25 | 79 | 1010.5 |
| 20260505235129 | 7 | 267 | 25.7 | 37.0 | 0.00 | 1.27 | 0.25 | 84 | 1010.1 |
| 20260505234633 | 7 | 274 | 19.3 | 43.5 | 0.00 | 1.27 | 0.25 | 83 | 1010.0 |
| 20260505234136 | 7 | 279 | 27.4 | 45.1 | 0.00 | 1.27 | 0.25 | 79 | 1010.0 |
| 20260505233639 | 8 | 275 | 25.7 | 45.1 | 0.00 | 1.27 | 0.25 | 81 | 1010.1 |
| 20260505233142 | 7 | 249 | 29.0 | 46.7 | 0.00 | 1.27 | 0.25 | 79 | 1010.0 |
| 20260505231651 | 7 | 254 | 24.1 | 49.9 | 0.00 | 1.27 | 0.25 | 82 | 1010.2 |
| 20260505231154 | 7 | 258 | 30.6 | 51.5 | 0.00 | 1.27 | 0.25 | 81 | 1010.2 |
| 20260505230657 | 7 | 252 | 29.0 | 51.5 | 0.00 | 1.27 | 0.25 | 81 | 1009.9 |
| 20260505225703 | 8 | 289 | 33.8 | 46.7 | 0.00 | 1.27 | 0.25 | 80 | 1009.8 |
| 20260505225206 | 8 | 263 | 17.7 | 43.5 | 0.00 | 1.27 | 0.25 | 81 | 1010.1 |
| 20260505224709 | 8 | 275 | 19.3 | 48.3 | 0.00 | 1.27 | 0.25 | 80 | 1010.2 |
| 20260505223715 | 8 | 257 | 19.3 | 48.3 | 0.00 | 1.27 | 0.25 | 82 | 1010.3 |
| 20260505223218 | 8 | 260 | 30.6 | 48.3 | 0.00 | 1.27 | 0.25 | 80 | 1010.3 |
| 20260505222721 | 8 | 271 | 24.1 | 45.1 | 0.00 | 1.27 | 0.25 | 81 | 1010.5 |
| 20260505222224 | 9 | 255 | 32.2 | 46.7 | 0.00 | 1.27 | 0.25 | 81 | 1010.4 |
| 20260505220733 | 8 | 265 | 32.2 | 48.3 | 0.00 | 1.27 | 0.25 | 81 | 1011.3 |
| 20260505220236 | 9 | 251 | 32.2 | 46.7 | 0.00 | 1.27 | 0.25 | 82 | 1011.3 |
| 20260505215739 | 8 | 263 | 24.1 | 45.1 | 0.00 | 1.27 | 0.25 | 85 | 1011.3 |
| 20260505215242 | 8 | 260 | 35.4 | 45.1 | 0.00 | 1.27 | 0.25 | 85 | 1011.4 |
| 20260505214745 | 8 | 282 | 17.7 | 41.8 | 0.00 | 1.27 | 0.25 | 88 | 1011.3 |
| 20260505214248 | 8 | 266 | 30.6 | 48.3 | 0.00 | 1.27 | 0.25 | 90 | 1011.4 |
| 20260505213752 | 7 | 257 | 25.7 | 48.3 | 0.00 | 1.27 | 0.25 | 91 | 1011.6 |
| 20260505213254 | 7 | 269 | 22.5 | 38.6 | 0.00 | 1.27 | 0.25 | 92 | 1011.5 |
| 20260505212833 | 7 | 261 | 24.1 | 40.2 | 0.00 | 1.27 | 0.25 | 93 | 1011.7 |
| 20260505212757 | 7 | 261 | 24.1 | 40.2 | 0.00 | 1.27 | 0.25 | 93 | 1011.7 |
| 20260505212300 | 7 | 261 | 29.0 | 40.2 | 0.00 | 1.27 | 0.25 | 93 | 1011.6 |
| 20260505211803 | 7 | 267 | 22.5 | 41.8 | 0.00 | 1.27 | 0.25 | 93 | 1011.7 |
| 20260505211346 | 7 | 259 | 22.5 | 43.5 | 0.00 | 1.27 | 0.25 | 93 | 1011.8 |
| 20260505211306 | 7 | 259 | 22.5 | 43.5 | 0.00 | 1.27 | 0.25 | 93 | 1011.8 |
| 20260505210809 | 7 | 261 | 29.0 | 45.1 | 0.00 | 1.27 | 0.25 | 92 | 1011.8 |
| 20260505210312 | 7 | 268 | 27.4 | 48.3 | 0.00 | 1.27 | 0.25 | 93 | 1011.7 |
| 20260505205850 | 7 | 260 | 32.2 | 48.3 | 0.00 | 1.27 | 0.25 | 93 | 1011.9 |
| 20260505205816 | 7 | 260 | 32.2 | 48.3 | 0.00 | 1.27 | 0.25 | 93 | 1011.9 |
| 20260505205318 | 7 | 253 | 25.7 | 45.1 | 0.00 | 1.27 | 0.25 | 93 | 1012.0 |
| 20260505204324 | 7 | 254 | 22.5 | 41.8 | 0.00 | 1.27 | 0.25 | 94 | 1011.7 |
| 20260505203330 | 7 | 262 | 24.1 | 48.3 | 0.00 | 1.27 | 0.25 | 97 | 1011.6 |
| 20260505202833 | 7 | 252 | 32.2 | 48.3 | 0.00 | 1.27 | 0.25 | 97 | 1011.6 |
| 20260505201839 | 7 | 254 | 30.6 | 48.3 | 0.00 | 1.27 | 0.25 | 99 | 1011.9 |
| 20260505201342 | 7 | 267 | 32.2 | 45.1 | 0.00 | 1.27 | 0.25 | 100 | 1011.8 |
| 20260505200845 | 6 | 265 | 27.4 | 46.7 | 0.00 | 1.27 | 0.25 | 100 | 1011.7 |
| 20260505200348 | 6 | 267 | 30.6 | 46.7 | 0.00 | 1.27 | 0.25 | 100 | 1011.6 |
| 20260505195851 | 6 | 243 | 27.4 | 43.5 | 0.00 | 1.27 | 0.25 | 100 | 1012.0 |
| 20260505195354 | 6 | 272 | 20.9 | 40.2 | 0.00 | 1.27 | 0.25 | 100 | 1011.8 |
| 20260505194857 | 6 | 261 | 24.1 | 48.3 | 0.00 | 1.27 | 0.25 | 100 | 1011.8 |
| 20260505194400 | 6 | 269 | 32.2 | 48.3 | 0.03 | 1.27 | 0.25 | 100 | 1011.9 |
| 20260505193903 | 6 | 262 | 32.2 | 43.5 | 0.03 | 1.27 | 0.25 | 100 | 1011.8 |
| 20260505193406 | 6 | 256 | 27.4 | 51.5 | 0.03 | 1.27 | 0.25 | 100 | 1011.9 |
| 20260505192909 | 6 | 256 | 32.2 | 51.5 | 0.03 | 1.27 | 0.25 | 100 | 1012.0 |
| 20260505192412 | 6 | 263 | 32.2 | 48.3 | 0.03 | 1.27 | 0.25 | 100 | 1011.9 |
| 20260505191915 | 5 | 255 | 35.4 | 48.3 | 0.03 | 1.27 | 0.25 | 100 | 1012.1 |
| 20260505191418 | 5 | 258 | 33.8 | 48.3 | 0.03 | 1.27 | 0.25 | 100 | 1011.9 |
| 20260505190921 | 5 | 253 | 33.8 | 48.3 | 0.03 | 1.27 | 0.25 | 100 | 1011.8 |
| 20260505190425 | 5 | 254 | 30.6 | 48.3 | 0.05 | 1.27 | 0.25 | 100 | 1011.9 |
| 20260505185927 | 5 | 257 | 25.7 | 45.1 | 0.05 | 1.27 | 0.25 | 100 | 1011.8 |
| 20260505185431 | 5 | 253 | 22.5 | 45.1 | 0.05 | 1.27 | 0.25 | 100 | 1011.9 |
| 20260505184933 | 5 | 258 | 27.4 | 45.1 | 0.05 | 1.27 | 0.25 | 100 | 1011.8 |
| 20260505184436 | 5 | 264 | 20.9 | 38.6 | 0.05 | 1.27 | 0.25 | 100 | 1011.8 |
| 20260505183939 | 5 | 259 | 19.3 | 38.6 | 0.05 | 1.24 | 0.23 | 100 | 1011.8 |
| 20260505183442 | 5 | 268 | 20.9 | 38.6 | 0.05 | 1.24 | 0.23 | 100 | 1011.8 |
| 20260505182945 | 5 | 268 | 20.9 | 38.6 | 0.05 | 1.24 | 0.23 | 100 | 1011.8 |
| 20260505182448 | 5 | 251 | 27.4 | 38.6 | 0.08 | 1.24 | 0.23 | 100 | 1011.6 |
| 20260505181951 | 5 | 256 | 25.7 | 41.8 | 0.08 | 1.24 | 0.23 | 100 | 1011.7 |
| 20260505181455 | 5 | 259 | 25.7 | 41.8 | 0.08 | 1.24 | 0.23 | 100 | 1011.6 |
| 20260505180957 | 5 | 259 | 24.1 | 41.8 | 0.08 | 1.24 | 0.23 | 100 | 1011.6 |
| 20260505180500 | 5 | 276 | 24.1 | 45.1 | 0.08 | 1.22 | 0.20 | 100 | 1011.6 |
| 20260505180003 | 5 | 266 | 27.4 | 45.1 | 0.08 | 1.22 | 0.20 | 100 | 1011.3 |
| 20260505175506 | 5 | 269 | 25.7 | 43.5 | 0.10 | 1.22 | 0.20 | 100 | 1011.4 |
| 20260505175009 | 5 | 278 | 25.7 | 43.5 | 0.10 | 1.22 | 0.20 | 100 | 1011.4 |
| 20260505174512 | 5 | 276 | 27.4 | 41.8 | 0.10 | 1.22 | 0.20 | 100 | 1011.3 |
| 20260505174015 | 5 | 269 | 27.4 | 41.8 | 0.08 | 1.19 | 0.18 | 100 | 1011.0 |
| 20260505173519 | 5 | 274 | 19.3 | 45.1 | 0.08 | 1.19 | 0.18 | 100 | 1010.9 |
| 20260505173021 | 5 | 259 | 32.2 | 45.1 | 0.10 | 1.19 | 0.18 | 100 | 1010.7 |
| 20260505172524 | 5 | 257 | 27.4 | 54.7 | 0.10 | 1.19 | 0.18 | 100 | 1010.6 |
| 20260505172027 | 5 | 273 | 32.2 | 54.7 | 0.08 | 1.17 | 0.15 | 100 | 1010.6 |
| 20260505171530 | 5 | 257 | 38.6 | 54.7 | 0.08 | 1.17 | 0.15 | 100 | 1010.7 |
| 20260505171033 | 5 | 265 | 25.7 | 43.5 | 0.08 | 1.17 | 0.15 | 100 | 1010.7 |
| 20260505170536 | 6 | 272 | 27.4 | 40.2 | 0.08 | 1.14 | 0.13 | 100 | 1010.7 |
| 20260505170039 | 6 | 270 | 25.7 | 40.2 | 0.08 | 1.14 | 0.13 | 100 | 1010.6 |
| 20260505165542 | 6 | 258 | 24.1 | 40.2 | 0.05 | 1.12 | 0.10 | 100 | 1010.6 |
| 20260505165045 | 6 | 255 | 25.7 | 43.5 | 0.05 | 1.12 | 0.10 | 100 | 1010.3 |
| 20260505164549 | 5 | 269 | 20.9 | 43.5 | 0.05 | 1.12 | 0.10 | 100 | 1010.4 |
| 20260505164051 | 5 | 267 | 20.9 | 35.4 | 0.08 | 1.12 | 0.10 | 100 | 1010.5 |
| 20260505163554 | 5 | 270 | 20.9 | 37.0 | 0.08 | 1.12 | 0.10 | 100 | 1010.4 |
| 20260505163149 | 5 | 269 | 20.9 | 38.6 | 0.08 | 1.09 | 0.08 | 100 | 1010.4 |
| 20260505163057 | 5 | 269 | 20.9 | 38.6 | 0.08 | 1.09 | 0.08 | 100 | 1010.4 |
| 20260505162636 | 5 | 274 | 25.7 | 38.6 | 0.08 | 1.09 | 0.08 | 100 | 1010.3 |
| 20260505162600 | 5 | 274 | 25.7 | 38.6 | 0.08 | 1.09 | 0.08 | 100 | 1010.3 |
| 20260505162103 | 5 | 271 | 22.5 | 35.4 | 0.08 | 1.09 | 0.08 | 100 | 1010.2 |
| 20260505161606 | 5 | 285 | 19.3 | 38.6 | 0.08 | 1.09 | 0.08 | 100 | 1010.2 |
| 20260505161109 | 5 | 284 | 25.7 | 48.3 | 0.08 | 1.09 | 0.08 | 100 | 1010.2 |
| 20260505160612 | 5 | 284 | 25.7 | 48.3 | 0.05 | 1.07 | 0.05 | 100 | 1010.2 |
| 20260505160115 | 5 | 293 | 33.8 | 48.3 | 0.05 | 1.07 | 0.05 | 100 | 1010.2 |
| 20260505153133 | 5 | 269 | 33.8 | 48.3 | 0.00 | 1.02 | 0.00 | 100 | 1009.9 |
| 20260505152636 | 5 | 270 | 33.8 | 49.9 | 0.00 | 1.02 | 0.00 | 100 | 1009.9 |
| 20260505152139 | 5 | 272 | 33.8 | 49.9 | 0.00 | 1.02 | 0.00 | 100 | 1009.8 |
| 20260505151642 | 5 | 262 | 33.8 | 51.5 | 0.00 | 1.02 | 0.00 | 100 | 1009.7 |
| 20260505151145 | 5 | 272 | 29.0 | 51.5 | 0.03 | 1.02 | 0.00 | 100 | 1009.8 |
| 20260505150648 | 5 | 263 | 35.4 | 51.5 | 0.03 | 1.02 | 0.00 | 100 | 1009.8 |
| 20260505150151 | 5 | 275 | 25.7 | 53.1 | 0.03 | 1.02 | 0.00 | 100 | 1009.7 |
| 20260505140227 | 5 | 249 | 29.0 | 43.5 | 0.18 | 0.99 | 0.99 | 100 | 1009.6 |
| 20260505130303 | 5 | 267 | 19.3 | 32.2 | 0.13 | 0.81 | 0.81 | 100 | 1009.4 |
| 20260505124812 | 5 | 282 | 17.7 | 40.2 | 0.10 | 0.76 | 0.76 | 100 | 1009.3 |
| 20260505124316 | 5 | 290 | 25.7 | 40.2 | 0.10 | 0.76 | 0.76 | 100 | 1009.3 |
| 20260505123818 | 5 | 286 | 16.1 | 33.8 | 0.08 | 0.74 | 0.74 | 100 | 1009.3 |
| 20260505123322 | 5 | 256 | 19.3 | 33.8 | 0.08 | 0.74 | 0.74 | 100 | 1009.3 |
| 20260505122824 | 5 | 261 | 24.1 | 33.8 | 0.03 | 0.69 | 0.69 | 100 | 1009.1 |
| 20260505122327 | 5 | 271 | 17.7 | 29.0 | 0.03 | 0.69 | 0.69 | 100 | 1008.9 |
| 20260505121830 | 5 | 264 | 14.5 | 29.0 | 0.03 | 0.69 | 0.69 | 100 | 1009.0 |
| 20260505121333 | 6 | 274 | 14.5 | 38.6 | 0.05 | 0.69 | 0.69 | 100 | 1009.1 |
| 20260505120836 | 6 | 255 | 14.5 | 40.2 | 0.05 | 0.69 | 0.69 | 100 | 1009.0 |
| 20260505115842 | 6 | 255 | 19.3 | 33.8 | 0.05 | 0.69 | 0.69 | 100 | 1009.2 |
| 20260505115345 | 6 | 247 | 19.3 | 38.6 | 0.03 | 0.66 | 0.66 | 100 | 1009.1 |
| 20260505114848 | 6 | 256 | 20.9 | 45.1 | 0.03 | 0.66 | 0.66 | 100 | 1009.1 |
| 20260505114351 | 6 | 268 | 25.7 | 48.3 | 0.05 | 0.66 | 0.66 | 100 | 1009.1 |
| 20260505113855 | 6 | 268 | 32.2 | 48.3 | 0.05 | 0.69 | 0.66 | 100 | 1009.1 |
| 20260505113357 | 6 | 266 | 25.7 | 41.8 | 0.08 | 0.69 | 0.66 | 100 | 1009.2 |
| 20260505112901 | 6 | 266 | 24.1 | 45.1 | 0.08 | 0.69 | 0.66 | 100 | 1009.3 |
| 20260505111907 | 6 | 267 | 25.7 | 41.8 | 0.10 | 0.69 | 0.66 | 100 | 1009.3 |
| 20260505111409 | 6 | 278 | 25.7 | 41.8 | 0.10 | 0.66 | 0.64 | 100 | 1009.4 |
| 20260505110913 | 6 | 272 | 25.7 | 51.5 | 0.10 | 0.66 | 0.64 | 100 | 1009.4 |
| 20260505110415 | 6 | 275 | 30.6 | 51.5 | 0.13 | 0.66 | 0.64 | 100 | 1009.3 |
| 20260505101943 | 5 | 282 | 19.3 | 32.2 | 0.20 | 0.58 | 0.56 | 100 | 1009.4 |
| 20260505101446 | 5 | 278 | 19.3 | 32.2 | 0.20 | 0.56 | 0.53 | 100 | 1009.3 |
| 20260505100949 | 5 | 282 | 16.1 | 27.4 | 0.23 | 0.56 | 0.53 | 99 | 1009.4 |
| 20260505095955 | 5 | 281 | 16.1 | 35.4 | 0.25 | 0.51 | 0.48 | 100 | 1009.5 |
| 20260505095457 | 5 | 270 | 17.7 | 35.4 | 0.30 | 0.51 | 0.48 | 100 | 1009.6 |
| 20260505095001 | 5 | 258 | 24.1 | 35.4 | 0.30 | 0.48 | 0.46 | 100 | 1009.5 |
| 20260505094504 | 5 | 266 | 22.5 | 35.4 | 0.33 | 0.48 | 0.46 | 100 | 1009.6 |
| 20260505094007 | 5 | 263 | 19.3 | 32.2 | 0.33 | 0.46 | 0.43 | 100 | 1009.6 |
| 20260505093510 | 5 | 255 | 14.5 | 25.7 | 0.36 | 0.46 | 0.43 | 100 | 1009.6 |
| 20260505093013 | 5 | 261 | 12.9 | 37.0 | 0.33 | 0.43 | 0.41 | 100 | 1009.8 |
| 20260505092516 | 5 | 254 | 11.3 | 37.0 | 0.30 | 0.41 | 0.38 | 100 | 1009.7 |
| 20260505092019 | 5 | 252 | 20.9 | 32.2 | 0.28 | 0.38 | 0.36 | 100 | 1009.9 |
| 20260505091522 | 5 | 257 | 17.7 | 32.2 | 0.25 | 0.36 | 0.33 | 99 | 1009.8 |
| 20260505091025 | 5 | 253 | 14.5 | 27.4 | 0.25 | 0.33 | 0.30 | 99 | 1009.9 |
| 20260505090527 | 5 | 262 | 19.3 | 27.4 | 0.25 | 0.30 | 0.28 | 99 | 1010.0 |
| 20260505090031 | 5 | 258 | 16.1 | 33.8 | 0.20 | 0.25 | 0.23 | 99 | 1009.9 |
| 20260505085534 | 5 | 272 | 22.5 | 33.8 | 0.15 | 0.20 | 0.18 | 99 | 1010.0 |
| 20260505085038 | 5 | 270 | 19.3 | 33.8 | 0.13 | 0.18 | 0.15 | 99 | 1010.1 |
| 20260505084539 | 5 | 273 | 9.7 | 32.2 | 0.10 | 0.15 | 0.13 | 99 | 1010.0 |
| 20260505084043 | 5 | 250 | 16.1 | 29.0 | 0.08 | 0.13 | 0.10 | 99 | 1010.2 |
| 20260505083546 | 5 | 239 | 14.5 | 32.2 | 0.05 | 0.10 | 0.08 | 99 | 1010.0 |
| 20260505083049 | 5 | 257 | 19.3 | 32.2 | 0.05 | 0.10 | 0.08 | 99 | 1010.0 |
| 20260505082552 | 5 | 266 | 16.1 | 32.2 | 0.05 | 0.10 | 0.08 | 99 | 1010.2 |
| 20260505082054 | 5 | 258 | 19.3 | 32.2 | 0.05 | 0.10 | 0.08 | 99 | 1010.3 |
| 20260505081557 | 5 | 268 | 22.5 | 37.0 | 0.05 | 0.10 | 0.08 | 99 | 1010.2 |
| 20260505081101 | 5 | 269 | 24.1 | 37.0 | 0.03 | 0.08 | 0.05 | 99 | 1010.4 |
| 20260505080604 | 5 | 266 | 19.3 | 38.6 | 0.00 | 0.05 | 0.03 | 99 | 1010.4 |
| 20260505080107 | 5 | 268 | 19.3 | 41.8 | 0.00 | 0.05 | 0.03 | 99 | 1010.6 |
| 20260505075610 | 5 | 274 | 25.7 | 41.8 | 0.00 | 0.05 | 0.03 | 99 | 1010.6 |
| 20260505074711 | 4 | 274 | 29.0 | 45.1 | 0.00 | 0.05 | 0.03 | 99 | 1010.5 |
| 20260505074616 | 4 | 274 | 29.0 | 45.1 | 0.00 | 0.05 | 0.03 | 99 | 1010.5 |
| 20260505073711 | 4 | 264 | 27.4 | 48.3 | 0.00 | 0.05 | 0.03 | 99 | 1010.5 |
| 20260505073622 | 4 | 264 | 27.4 | 48.3 | 0.00 | 0.05 | 0.03 | 99 | 1010.5 |
| 20260505073159 | 5 | 271 | 32.2 | 48.3 | 0.00 | 0.05 | 0.03 | 99 | 1010.2 |
| 20260505073125 | 5 | 271 | 32.2 | 48.3 | 0.00 | 0.05 | 0.03 | 99 | 1010.2 |
| 20260505072627 | 5 | 264 | 29.0 | 48.3 | 0.00 | 0.05 | 0.03 | 99 | 1010.2 |
| 20260505072130 | 5 | 266 | 32.2 | 48.3 | 0.00 | 0.05 | 0.03 | 99 | 1010.3 |